Wind_Speed
8 13 14 13 13 14 15 15 15 14 14 16 12 10 9 11 14 13 12 12 11 12 12 10 9 9 10 9 9 8 8 10 10 9 7 9 13 11 9 9 8 8 9 9 10 9 9 11 12 12 12 11 11 11 11 10 10 10 9 8 5 4 5 5 7 8 6 5 7 8 10 11 12 12 14 14 16 18 17 16 17 18 19 20 20
7 11 12 12 12 13 13 13 14 14 15 15 11 13 12 14 17 15 14 13 13 13 12 10 10 11 11 10 10 9 9 10 10 8 7 9 12 12 11 9 9 10 9 8 9 9 9 10 10 10 9 9 9 10 10 10 10 9 8 7 5 3 4 5 6 7 6 4 2 3 5 8 10 13 14 15 17 19 17 16 16 17 18 19 21
6 8 10 12 13 14 13 13 14 13 15 15 11 13 14 15 16 17 16 15 15 13 12 11 11 12 11 9 10 8 8 10 10 9 8 9 12 13 12 11 10 10 9 8 8 7 6 8 9 8 8 8 9 9 9 9 9 7 5 5 4 4 4 4 6 7 6 5 3 2 2 2 4 8 12 15 17 18 19 18 17 17 19 20 21
7 6 8 10 12 15 15 14 14 13 14 15 13 14 16 15 13 16 17 16 15 14 13 13 12 12 10 9 9 8 7 8 10 10 10 12 14 13 13 13 11 9 9 8 8 7 7 8 8 8 7 7 8 9 8 8 9 6 4 4 4 4 3 3 5 6 8 8 3 2 1 1 1 3 7 13 15 17 20 20 19 18 20 21 22
7 7 7 8 10 13 14 14 14 14 13 13 15 17 18 15 14 17 17 15 15 15 14 14 14 12 11 9 8 8 8 7 9 11 12 13 14 14 12 11 9 8 7 8 8 7 8 8 8 7 7 7 8 8 8 8 7 5 3 4 4 5 4 2 5 6 8 10 7 4 2 1 2 2 3 6 11 16 20 21 21 20 20 20 22
5 7 7 7 9 11 12 14 15 16 16 15 16 20 19 16 17 18 16 15 14 15 14 15 16 14 13 10 8 8 7 8 10 9 10 13 13 11 7 6 5 6 7 8 6 5 6 7 6 6 6 6 7 7 7 7 5 5 5 4 4 5 5 4 5 6 7 11 13 11 8 4 2 2 2 2 5 11 16 19 21 22 21 20 21
4 6 7 7 9 11 12 13 14 16 19 20 21 22 21 19 19 18 17 16 14 13 13 14 15 14 12 10 8 7 7 9 11 9 8 10 9 6 4 4 4 4 5 6 4 3 5 6 6 5 4 5 6 6 6 6 4 5 6 4 3 6 6 5 6 6 6 8 12 14 14 11 8 5 3 1 2 5 11 15 19 20 20 20 21
5 5 7 8 9 11 12 13 13 14 18 20 20 20 20 20 19 17 15 14 13 12 11 11 12 12 11 10 9 9 8 9 9 8 6 5 4 3 2 3 4 3 3 2 2 2 3 5 6 5 4 5 5 6 6 6 5 5 5 4 4 6 7 7 7 6 5 6 8 11 13 14 13 11 9 6 3 2 5 10 15 19 20 21 23
7 6 7 8 9 11 12 13 13 14 16 17 17 17 19 20 19 16 12 12 11 10 9 9 10 11 11 10 9 8 7 7 6 4 2 2 3 3 2 3 6 7 5 2 2 3 3 4 5 5 5 6 6 6 6 6 6 6 5 6 6 6 7 8 9 8 6 5 6 8 9 9 9 10 11 10 7 4 4 5 8 12 16 20 24
8 7 7 7 9 11 12 13 14 14 14 15 17 17 18 19 18 16 13 10 10 10 10 10 10 9 9 8 6 5 5 5 4 2 2 2 3 3 2 3 5 6 5 2 1 3 4 4 3 5 6 7 7 6 7 6 6 6 5 5 6 6 7 8 8 9 8 7 5 6 8 7 6 6 7 8 8 7 6 5 5 7 8 13 19
9 7 6 6 8 11 12 13 14 14 14 15 17 17 18 18 17 16 14 11 10 9 10 11 9 7 8 8 6 5 4 4 4 3 2 2 3 3 2 3 4 6 3 2 3 4 4 2 2 5 7 7 7 7 9 8 8 8 7 6 6 7 8 8 8 9 9 9 8 8 11 10 7 7 7 9 9 8 6 5 6 8 8 10 14
6 5 4 5 6 9 12 12 13 14 13 14 15 15 17 17 15 15 13 12 12 10 10 10 9 7 7 7 6 5 4 3 3 2 2 2 2 2 4 3 2 4 4 6 7 4 2 3 4 5 5 6 7 8 9 10 9 9 9 8 8 7 8 8 9 10 10 10 10 10 12 11 10 12 12 12 12 10 6 4 4 7 7 10 13
6 4 2 3 2 4 9 11 12 12 12 14 15 15 16 16 14 15 14 13 13 12 10 9 8 7 7 6 6 4 3 2 2 2 2 1 2 3 4 4 3 4 6 5 3 5 6 6 6 5 4 5 6 8 9 10 10 10 10 10 9 9 9 8 8 10 10 11 11 11 12 10 11 13 13 13 14 11 7 5 6 7 6 8 12
8 6 4 4 3 5 7 10 11 12 13 14 14 15 16 16 15 16 14 13 14 12 11 9 8 7 6 6 5 4 3 3 1 2 1 1 3 4 3 4 4 6 6 4 6 7 7 7 6 6 7 7 7 8 9 10 9 9 11 11 11 11 11 11 10 11 11 11 11 12 12 11 11 13 12 13 15 13 10 7 6 7 8 8 9
7 9 8 6 7 9 9 10 11 12 13 13 14 14 15 15 16 15 14 13 13 12 11 10 9 8 6 6 5 3 3 2 1 2 3 2 4 4 4 4 5 6 6 5 4 5 4 5 6 7 8 9 9 9 9 9 9 10 11 12 13 12 12 12 12 12 12 12 13 13 13 13 12 12 12 12 13 13 12 11 8 5 5 6 6
8 8 9 8 9 10 10 10 11 12 13 13 14 14 14 15 15 15 14 13 12 12 11 10 9 8 7 6 4 3 2 1 1 0 1 1 3 4 4 6 5 5 6 5 4 6 7 7 8 8 9 10 10 10 10 9 10 11 11 12 12 12 12 13 13 13 12 13 13 14 14 14 13 13 13 12 12 12 12 13 12 8 4 4 4
10 8 8 8 9 10 10 10 11 12 13 14 13 14 15 15 14 15 14 13 13 12 10 10 9 8 7 5 4 4 3 1 0 0 1 2 2 3 4 4 5 6 6 5 7 9 9 9 9 9 10 10 10 10 9 9 10 10 10 11 11 12 13 14 14 14 14 14 15 14 15 15 15 14 14 12 11 12 12 12 14 11 6 3 3
10 9 8 7 8 10 10 10 12 12 13 13 13 13 14 14 14 14 14 13 12 12 11 10 9 8 7 6 5 4 3 2 1 1 1 2 3 3 4 4 5 6 5 7 9 9 10 10 10 9 9 9 10 10 9 9 10 11 11 12 12 11 12 13 13 14 15 15 15 16 16 16 15 15 15 14 12 12 12 13 14 14 11 9 6
8 8 7 7 8 10 11 11 13 13 13 14 13 14 14 14 14 13 13 12 11 11 11 9 8 8 7 6 5 3 2 2 1 1 2 4 4 5 6 5 6 8 7 8 9 8 8 8 7 8 8 10 11 12 13 14 13 13 13 12 12 13 14 13 13 14 14 15 15 15 16 16 16 16 16 17 16 15 15 15 15 15 15 16 14
7 7 6 7 9 11 12 12 14 14 14 14 14 14 14 14 13 12 12 11 10 10 10 8 8 8 5 5 6 5 3 2 1 1 2 4 5 5 6 6 8 9 8 9 9 8 9 8 6 8 9 11 14 13 13 13 13 13 12 12 13 14 15 14 14 14 14 15 15 15 16 17 17 17 17 17 17 17 18 20 19 18 17 17 17
8 7 7 8 10 12 13 14 14 14 14 14 13 14 14 13 12 12 12 11 9 9 8 5 7 7 5 3 5 6 4 2 1 1 2 3 4 4 5 7 8 8 7 8 8 10 11 7 7 9 10 11 12 12 11 12 13 13 13 13 14 14 14 14 14 15 15 15 15 16 16 17 17 17 17 17 17 18 18 18 19 19 19 18 17
10 9 10 10 11 12 14 15 14 13 14 13 14 14 14 13 12 12 12 11 9 9 7 5 6 6 4 2 2 4 3 1 1 2 3 5 5 6 6 7 7 7 7 7 8 10 11 9 9 11 12 12 11 10 10 12 13 14 14 14 14 15 15 14 14 15 15 15 16 16 16 16 17 18 18 17 18 19 18 18 18 18 19 20 19
11 12 12 11 12 14 15 16 14 13 13 13 13 15 14 13 13 11 11 11 9 9 7 5 6 5 4 3 2 2 1 1 1 3 5 5 7 8 8 7 7 8 8 8 9 10 12 11 10 12 13 11 10 10 11 12 12 14 14 14 15 15 16 15 16 16 16 16 17 17 17 16 16 17 18 18 18 19 18 18 19 19 18 16 16
11 12 10 10 12 13 14 15 13 12 12 11 13 17 15 13 12 11 11 11 10 9 8 5 5 4 3 3 2 1 0 1 2 4 5 5 5 6 6 6 7 8 9 9 10 11 12 11 11 13 13 12 11 12 12 12 13 13 14 15 15 16 16 16 16 18 18 18 18 18 17 17 17 18 19 19 18 18 19 19 19 19 19 18 18
11 10 9 11 10 10 12 14 13 12 12 11 14 18 15 13 11 10 11 11 9 8 7 5 5 4 3 2 1 1 0 3 3 5 6 7 6 6 7 7 7 9 10 10 11 11 12 12 12 14 14 13 13 12 13 13 13 14 14 15 15 15 16 15 16 17 18 19 19 18 18 18 18 18 18 18 18 18 19 19 19 18 18 19 20
11 9 9 10 9 8 12 14 14 14 13 11 14 16 16 13 11 10 10 10 8 7 6 6 5 4 4 2 2 1 2 4 4 5 5 6 7 7 8 8 9 10 11 11 11 12 13 13 13 14 15 14 13 12 13 15 15 15 15 16 15 15 15 14 15 16 17 19 20 19 19 19 19 19 18 18 19 19 20 20 19 19 19 19 19
7 7 7 9 8 8 12 14 15 15 13 12 13 14 16 15 13 12 13 10 8 8 7 6 5 4 4 3 2 2 3 4 4 5 5 5 6 7 7 9 9 10 11 11 12 13 14 13 13 14 16 16 15 14 15 16 17 17 17 16 16 15 13 13 14 16 19 20 21 21 20 20 19 19 19 19 18 19 19 19 18 18 18 18 17
7 6 7 9 8 8 11 13 15 16 15 14 13 13 14 15 13 13 14 12 10 9 8 6 5 4 3 3 3 2 3 3 4 4 5 6 6 7 8 9 9 10 10 11 11 12 13 13 14 15 15 16 16 17 17 18 18 18 16 15 15 14 13 14 16 19 21 21 22 22 22 21 21 20 20 19 18 18 18 18 18 17 17 17 17
10 9 8 9 8 8 10 12 14 16 17 16 15 14 14 14 14 13 13 13 11 10 8 7 5 4 3 2 2 2 2 3 3 4 5 7 7 8 9 9 9 10 10 11 11 12 13 14 15 16 16 16 16 16 16 17 18 18 16 15 16 17 17 17 18 20 21 21 22 23 22 21 21 22 22 22 21 21 21 21 20 19 17 17 17
11 10 9 9 8 8 10 13 14 16 18 17 16 16 16 15 15 14 14 14 12 11 9 8 6 5 3 2 2 2 2 3 4 5 6 8 8 8 9 9 9 10 10 11 12 13 14 15 15 16 17 16 16 15 17 18 20 20 18 17 17 18 17 17 18 19 20 21 22 22 22 21 21 22 23 22 22 22 21 21 21 20 19 18 18
11 9 8 8 9 9 10 13 14 16 18 19 18 18 18 18 17 16 16 15 14 12 10 8 6 5 4 3 2 2 3 4 5 6 7 8 9 9 9 9 10 10 11 12 12 13 14 15 16 16 17 17 16 17 18 19 19 18 17 16 15 15 15 16 17 19 20 21 22 22 22 21 21 21 21 21 21 20 20 20 20 20 20 20 19
12 11 10 10 10 10 10 14 17 17 18 20 19 19 19 20 19 18 18 16 15 13 11 9 7 5 4 4 3 3 4 5 6 7 8 8 8 9 9 10 10 11 11 12 13 14 14 15 16 17 17 17 18 18 19 19 18 19 18 16 14 15 16 17 18 19 20 21 22 23 23 23 22 22 21 21 21 20 20 21 21 21 21 21 20
11 11 12 11 11 11 13 16 18 19 19 21 22 22 22 22 22 20 19 17 16 14 11 10 7 5 4 5 4 4 4 5 6 7 8 8 9 9 9 10 10 11 11 13 13 14 15 16 16 17 17 18 18 19 20 20 19 20 19 17 16 17 17 18 19 20 21 22 23 23 24 23 22 22 22 22 22 21 21 21 21 20 20 20 19
9 9 10 9 11 13 15 17 19 21 21 22 22 22 22 22 21 20 19 18 16 14 12 9 8 6 5 5 4 4 5 6 7 8 8 9 9 9 10 10 10 11 12 13 14 15 16 16 17 17 18 18 19 20 20 20 19 17 17 17 17 17 17 18 19 20 22 23 24 24 24 24 23 22 22 22 23 22 22 22 21 21 20 20 19
10 8 9 10 13 14 17 20 20 20 21 23 24 23 22 21 20 19 18 18 16 14 11 8 7 7 6 4 4 4 5 6 7 8 8 8 9 9 10 10 11 12 12 13 14 15 16 17 18 18 19 19 19 19 20 20 19 18 17 16 16 16 16 18 20 21 22 24 25 25 25 24 23 23 23 23 23 22 22 21 21 21 21 21 21
9 9 10 13 15 15 15 17 19 20 20 19 17 16 14 14 15 16 16 16 16 14 11 8 7 6 5 4 4 4 5 6 7 7 7 8 9 9 10 10 11 12 12 13 15 16 17 18 19 19 19 19 19 19 20 21 21 20 19 16 15 16 17 19 21 22 23 23 23 23 24 24 24 24 24 23 22 22 21 20 20 21 21 21 22
13 14 12 12 16 16 15 16 18 15 8 2 4 5 2 2 7 11 14 14 13 12 10 7 6 6 5 4 3 4 5 6 6 7 7 8 9 9 10 10 11 12 14 15 17 18 18 18 18 18 18 19 19 20 21 21 22 21 19 17 16 17 18 20 21 21 22 23 23 24 24 25 25 25 24 22 22 21 20 20 20 21 21 21 22
14 13 10 10 13 14 15 15 7 5 5 4 6 8 6 6 7 8 10 12 12 9 8 6 5 5 4 3 3 4 5 5 5 6 8 8 9 10 10 11 12 14 15 17 18 18 18 19 19 19 20 20 21 22 21 20 21 20 18 18 18 18 19 20 20 21 22 23 23 23 23 23 23 23 21 20 19 18 17 16 17 19 19 20 20
9 8 8 7 5 5 9 7 2 7 8 13 15 14 12 10 7 3 5 8 9 8 7 6 5 4 3 3 3 4 4 4 5 7 8 8 9 9 10 11 13 14 15 16 17 17 19 20 21 21 21 22 22 22 22 20 19 18 18 18 19 19 18 19 19 20 21 21 21 21 21 21 20 18 17 16 16 15 14 14 16 17 18 19 19
7 7 7 7 9 8 9 6 5 9 13 15 16 15 13 11 9 6 5 6 7 7 7 7 5 3 3 3 3 2 3 4 6 7 8 8 9 10 11 12 13 13 15 16 16 17 18 20 21 21 21 22 22 23 23 22 19 18 19 19 20 19 19 19 19 19 20 20 20 20 19 18 17 16 16 16 16 14 15 18 21 20 17 18 21
8 8 8 8 10 12 12 10 11 13 14 14 16 17 15 13 12 10 7 7 8 8 7 6 4 2 2 1 0 2 4 5 6 6 8 9 9 11 12 12 12 13 14 15 16 16 18 19 19 20 21 21 22 22 23 22 20 19 19 19 19 19 19 19 19 19 19 20 21 21 20 19 18 18 18 18 18 20 22 26 28 28 26 26 28
12 12 12 10 9 8 9 12 11 11 12 13 14 16 15 15 14 11 9 10 9 7 6 5 3 2 1 1 2 3 4 5 6 7 8 9 10 12 12 12 12 13 14 15 16 16 17 18 19 19 20 20 21 20 20 20 19 17 17 17 18 20 20 19 20 20 19 20 21 22 22 21 21 21 21 23 26 29 31 33 34 34 34 34 33
13 13 13 13 12 10 8 8 9 10 11 13 14 14 13 12 12 12 12 11 8 6 6 4 3 2 1 1 2 3 4 5 7 7 8 10 12 12 12 12 11 11 12 14 15 16 16 17 18 19 19 19 20 20 19 19 18 17 16 16 16 17 17 18 20 20 20 21 22 23 23 23 24 26 29 32 34 34 35 36 37 37 36 34 32
12 14 15 15 13 7 5 8 10 11 14 15 14 13 12 10 10 11 10 9 7 7 5 3 3 2 1 2 1 3 5 6 7 8 11 13 13 11 11 11 10 10 12 13 14 15 15 16 17 17 18 19 21 22 22 21 18 15 13 12 13 14 16 17 18 19 20 21 22 24 25 27 29 31 33 35 35 36 36 36 35 34 32 30 28
12 14 15 10 5 9 11 12 13 14 15 15 14 13 13 12 10 9 8 7 7 6 4 2 2 1 3 1 2 5 6 5 8 12 15 14 10 10 11 11 11 11 12 12 13 14 15 15 16 16 18 19 21 22 23 22 18 15 14 15 16 18 19 19 19 21 22 23 24 25 26 26 28 30 32 33 34 34 34 34 33 33 32 32 30
9 11 16 16 14 13 15 16 15 14 15 14 13 12 12 10 9 9 9 7 6 4 2 2 1 3 2 2 6 7 5 6 11 13 12 10 10 11 12 13 12 12 13 13 13 14 14 15 17 17 18 19 20 21 22 20 18 19 20 21 21 20 20 20 21 22 24 24 24 24 23 25 28 30 32 33 35 36 36 35 35 34 35 35 32
18 19 21 20 15 15 17 15 15 15 14 13 12 11 10 9 8 9 8 6 4 2 2 2 3 4 3 5 7 6 7 9 11 11 11 12 12 12 12 13 13 14 14 14 14 15 16 16 17 18 18 18 18 19 19 17 19 23 25 25 24 22 21 21 22 23 24 25 26 27 28 30 32 32 32 32 32 33 32 30 29 28 28 28 27
19 19 18 16 15 16 16 15 15 14 13 13 12 11 10 9 9 9 8 6 5 5 5 5 6 5 7 9 9 10 10 11 11 11 12 12 11 11 11 12 13 14 14 14 14 15 16 16 16 18 18 17 17 18 18 19 22 26 27 28 27 26 26 26 27 27 29 31 34 34 34 34 31 29 29 29 27 26 26 25 25 25 24 24 25
17 18 16 16 16 16 16 15 15 14 13 13 12 10 10 10 10 9 8 7 7 6 6 7 7 6 11 13 11 11 10 10 10 12 13 12 12 13 13 13 14 13 13 14 15 15 15 16 16 17 17 17 17 19 21 24 27 28 28 28 30 31 32 33 34 33 33 34 34 31 28 27 25 23 23 23 22 22 22 23 23 22 22 22 23
17 17 17 17 16 15 16 15 14 13 13 12 11 11 11 10 9 9 8 8 8 7 7 7 7 8 13 14 13 11 10 10 10 12 14 14 14 15 15 15 14 14 16 17 18 17 17 17 18 18 18 18 19 22 25 27 28 29 29 30 32 34 36 37 37 35 33 31 28 25 23 22 21 21 21 20 19 19 19 20 20 20 21 21 21
16 16 16 16 15 15 15 14 13 12 12 11 11 9 8 9 9 9 8 7 7 6 7 8 8 9 13 14 12 9 9 10 11 11 13 14 15 16 16 14 14 16 18 18 17 17 18 19 20 20 20 20 21 23 24 25 26 29 31 34 36 38 38 36 33 31 29 27 23 21 21 21 20 20 19 19 18 17 17 17 17 18 19 19 21
Wind_Direction
150 159 170 179 182 183 188 195 192 186 184 183 170 143 157 190 184 180 189 191 196 200 198 199 205 214 219 220 222 229 239 245 252 258 262 268 273 273 266 265 258 248 249 254 260 261 259 263 267 265 260 264 267 268 276 281 282 282 281 285 280 242 241 248 228 213 205 218 240 239 233 226 221 228 233 231 228 223 224 229 229 227 229 230 224
151 154 160 172 181 182 185 192 192 186 184 184 164 140 161 192 187 182 191 195 198 203 202 201 203 213 220 219 219 227 239 246 254 262 263 264 269 271 268 265 261 260 260 258 261 263 261 261 269 272 265 260 259 261 278 290 289 289 281 275 276 241 225 223 212 208 194 176 193 233 244 231 228 235 238 241 236 228 227 229 230 228 226 228 226
166 162 160 169 179 182 185 189 189 183 178 180 164 144 167 190 185 180 187 197 202 200 199 202 206 212 215 216 219 228 244 251 254 254 251 256 264 268 268 268 270 268 263 258 259 261 257 254 260 269 269 263 260 263 276 285 287 292 273 258 264 255 243 213 214 223 195 164 150 185 239 232 239 241 237 242 241 237 237 232 230 233 231 228 225
166 168 172 173 180 182 183 184 177 169 171 173 155 154 182 197 189 183 186 197 203 198 199 204 205 206 206 209 218 226 236 245 253 252 250 257 261 262 262 262 264 262 257 255 254 251 248 253 258 259 260 261 267 273 278 281 284 286 253 247 252 253 261 187 198 210 183 173 161 151 160 156 259 245 231 243 244 239 241 237 234 235 235 231 228
168 164 179 177 182 183 181 180 168 156 167 169 155 169 191 193 192 193 191 194 197 194 196 197 195 194 196 201 209 215 222 237 248 252 254 257 258 259 255 249 247 250 253 250 247 250 257 266 272 270 268 267 274 282 284 289 299 304 270 247 241 248 262 216 205 214 201 201 196 169 148 177 224 188 197 248 247 238 240 240 239 239 238 234 229
180 162 175 176 178 179 176 179 170 156 163 168 168 183 186 177 184 190 186 185 187 190 189 188 190 188 186 187 194 204 219 238 242 250 259 254 251 254 250 236 237 244 255 258 252 258 271 274 278 284 283 274 280 291 295 305 313 308 304 283 247 242 248 245 243 246 237 228 221 217 223 230 211 143 133 286 254 242 242 239 238 240 241 241 235
187 168 173 170 168 171 171 175 174 161 159 162 169 179 175 168 176 178 179 181 180 185 186 183 188 185 181 183 192 207 222 238 241 246 249 241 239 241 234 234 245 244 250 258 252 249 267 271 269 275 286 286 297 305 304 313 311 295 309 310 251 237 234 236 252 250 237 233 232 231 231 228 219 191 178 231 250 241 238 234 235 237 240 243 242
175 180 175 170 163 166 168 168 169 160 155 158 164 169 164 163 171 173 177 180 176 181 180 179 184 183 185 191 200 213 222 235 240 242 239 233 236 241 237 244 256 267 264 272 292 279 279 282 283 293 306 306 307 308 309 318 319 299 301 297 259 248 241 239 255 257 236 238 246 246 238 225 220 215 207 211 235 256 228 227 232 236 240 242 241
167 186 182 174 160 160 164 159 156 154 154 157 159 161 159 160 167 171 173 175 179 182 172 173 185 189 191 195 209 219 220 226 229 231 243 256 257 253 263 269 271 267 251 245 320 298 293 298 303 315 316 309 305 308 312 314 315 311 298 288 277 270 260 253 260 265 262 262 257 258 255 235 225 224 209 208 224 236 225 220 224 232 242 245 243
165 189 186 170 158 159 156 146 144 148 151 149 148 156 159 158 163 169 170 172 179 178 170 177 188 192 189 186 203 214 200 202 193 181 238 279 284 260 249 282 301 289 248 217 326 291 280 281 293 310 315 318 322 321 319 318 321 325 315 296 291 287 278 268 265 270 275 276 270 268 268 257 240 228 202 205 224 232 240 241 224 217 232 246 244
163 174 174 164 163 156 144 143 144 143 143 139 139 144 150 153 159 164 168 173 178 173 168 176 179 176 178 173 172 170 173 187 178 176 219 265 282 282 314 323 322 327 315 273 288 283 273 273 316 326 328 329 334 336 336 341 343 337 332 318 307 298 290 281 274 278 281 280 278 270 263 258 250 241 231 231 233 234 242 246 235 228 230 243 243
149 145 158 166 164 148 142 146 144 138 139 137 131 128 134 144 150 152 156 161 167 162 153 161 163 162 170 166 159 159 166 181 170 171 208 248 269 293 321 306 285 325 309 257 255 274 323 340 327 314 314 320 328 334 337 341 340 334 331 324 314 305 296 289 283 286 290 286 284 273 263 256 243 242 251 254 249 248 251 255 245 230 226 239 244
138 124 159 152 141 156 151 146 138 134 134 131 126 123 131 140 141 141 142 144 150 152 146 151 156 157 158 150 144 145 146 148 157 200 208 227 280 275 277 272 240 270 280 265 295 8 5 342 325 310 311 326 328 327 327 329 330 328 327 321 314 309 306 301 293 292 292 286 283 279 271 261 248 249 257 260 257 254 248 247 256 251 244 244 242
137 151 170 151 163 188 164 144 140 136 132 132 129 128 135 139 137 136 137 138 141 145 146 146 143 141 138 133 133 138 140 137 157 297 342 3 286 287 307 312 290 288 309 7 21 359 336 328 335 333 331 334 323 314 315 320 325 327 324 319 315 313 311 306 298 293 288 281 278 280 278 275 269 263 255 244 245 246 240 238 252 255 256 260 255
141 160 159 168 185 182 165 150 149 145 139 137 133 132 135 135 135 135 136 139 140 142 144 140 134 134 130 124 122 123 122 121 135 338 4 357 306 319 342 318 300 314 340 4 349 328 334 345 346 338 338 340 331 324 321 319 321 319 315 312 311 311 306 298 292 287 282 280 279 279 280 279 277 273 263 248 244 246 246 251 261 262 262 269 271
157 158 152 178 187 173 164 156 152 150 145 140 141 143 139 134 137 137 137 141 141 142 142 137 134 132 128 126 122 121 120 144 197 239 318 298 327 338 317 298 303 324 325 320 343 12 17 4 351 344 347 348 340 335 331 322 317 312 306 304 304 306 306 303 303 298 290 288 286 283 281 279 277 276 275 270 262 257 255 258 257 247 239 261 274
152 150 154 176 176 163 163 158 152 150 146 145 148 145 139 138 141 138 137 139 138 140 139 137 137 134 134 136 135 142 144 152 211 27 0 322 315 289 286 305 322 320 315 337 13 23 17 5 359 353 350 346 334 326 320 314 313 307 300 300 300 300 301 301 303 302 298 296 293 290 287 283 280 277 273 272 267 260 255 255 253 243 224 227 270
138 148 160 173 169 160 163 159 152 146 141 142 142 136 135 139 141 139 138 139 142 144 140 141 149 147 145 145 136 134 132 109 59 32 348 304 278 283 314 341 338 330 348 20 20 13 6 359 352 345 341 337 329 327 329 331 332 327 320 315 308 303 301 298 295 293 292 292 291 291 293 291 289 287 285 285 281 271 260 255 255 251 239 232 243
138 154 163 174 166 160 164 158 146 140 139 143 143 138 137 137 140 141 139 141 148 143 141 155 162 149 138 139 133 118 112 109 64 35 333 310 320 346 341 338 357 1 9 23 17 0 349 337 333 337 339 341 342 345 345 342 339 333 325 318 310 309 314 314 310 303 297 295 293 292 293 293 292 290 289 289 284 274 262 255 254 252 243 237 240
152 160 166 174 165 164 167 153 142 143 146 148 147 141 138 137 140 140 137 144 150 142 150 165 150 135 132 139 146 142 132 124 93 43 354 337 344 350 321 326 12 11 356 3 1 333 311 301 321 343 346 347 347 344 339 333 328 322 316 312 309 310 313 312 309 304 301 298 295 292 289 288 290 288 284 281 276 268 258 249 244 243 241 240 241
167 162 174 176 167 170 164 146 144 152 152 149 147 141 139 140 143 144 143 149 149 144 155 154 122 127 144 148 144 139 126 101 74 15 329 312 312 328 321 329 359 0 346 351 340 313 306 315 345 355 351 344 335 330 330 328 326 323 320 316 311 308 307 306 304 301 299 297 294 293 292 289 290 289 284 281 278 276 272 261 247 236 233 236 238
168 167 182 174 170 173 158 144 149 154 152 153 150 143 141 144 148 151 147 147 150 148 149 141 126 132 145 133 95 102 102 76 35 331 311 308 322 351 351 335 343 348 339 329 316 313 328 350 0 350 338 324 317 323 330 329 326 322 319 313 308 308 310 307 304 299 296 295 294 292 292 291 288 284 280 279 278 277 276 275 269 255 241 232 228
168 181 185 168 168 168 149 144 152 152 156 163 151 140 143 146 150 155 149 146 151 148 145 146 143 140 138 130 98 90 93 23 2 323 318 327 337 347 347 338 337 334 318 314 323 330 335 344 344 329 317 312 320 332 330 325 323 319 316 313 309 311 310 305 303 301 300 300 300 298 295 291 287 286 286 287 288 284 278 276 276 276 271 259 241
183 189 174 153 161 159 144 145 153 154 164 167 141 133 142 148 154 160 151 144 143 140 144 154 149 143 143 143 145 145 158 329 324 307 308 316 316 315 319 318 313 308 307 315 326 328 326 327 322 312 312 320 326 325 320 318 318 316 315 313 312 310 307 304 302 302 302 302 303 303 299 293 291 292 292 291 290 289 287 286 285 284 286 286 276
192 190 161 152 160 154 142 146 153 159 170 164 137 136 148 157 162 163 147 139 137 139 148 157 156 156 161 180 203 131 297 300 299 299 304 312 317 319 322 321 313 311 314 316 318 318 315 311 304 302 309 315 312 308 310 310 308 309 309 306 306 306 304 303 300 299 301 302 302 301 297 297 297 295 291 288 286 286 289 292 293 293 293 291 289
195 187 158 153 157 146 139 145 158 168 172 165 148 147 155 163 171 168 153 146 148 155 163 164 170 176 172 198 258 286 279 289 299 305 310 317 322 324 324 323 318 312 309 308 308 304 297 293 292 295 301 306 305 304 302 299 296 298 298 296 296 297 298 300 302 305 307 305 302 299 295 293 293 291 288 287 288 290 293 296 297 299 302 303 302
196 182 155 153 155 146 143 153 167 172 172 170 165 161 159 167 178 170 159 164 169 169 174 176 183 186 176 194 232 254 268 288 306 313 318 318 314 314 312 310 308 304 300 298 297 293 290 290 291 293 297 300 301 299 297 294 291 288 287 286 286 287 294 302 306 309 309 306 303 300 296 292 289 286 285 285 288 290 292 294 296 299 304 309 311
199 183 155 155 160 152 151 164 173 170 170 175 178 174 165 169 180 170 159 170 182 179 180 186 195 196 186 197 222 256 278 292 303 309 312 307 304 305 302 300 300 298 295 293 292 291 292 292 290 292 295 296 295 292 291 289 287 287 286 285 286 290 296 299 301 303 304 303 300 298 296 293 289 285 283 283 286 289 291 291 292 295 298 300 302
199 181 158 164 172 161 157 172 177 168 168 178 183 182 176 176 182 176 168 175 183 183 185 192 203 206 198 199 217 254 279 293 301 304 303 299 298 298 296 296 296 293 292 292 290 289 288 287 288 288 289 290 289 287 288 288 288 290 292 290 290 291 291 292 295 298 299 298 297 297 295 292 289 286 284 283 283 282 282 283 284 286 287 287 288
198 188 176 175 180 174 166 178 184 173 172 181 184 182 182 183 184 182 180 180 182 185 189 193 202 206 204 209 227 257 279 292 298 299 297 295 295 294 293 293 292 291 293 292 290 289 288 286 287 289 289 290 288 289 292 291 288 290 291 289 286 285 286 289 292 296 298 297 297 296 294 292 290 288 286 285 284 281 279 280 282 282 281 281 282
191 196 190 178 188 192 177 182 192 184 179 183 186 184 184 185 187 186 184 183 183 186 189 193 201 206 204 214 232 253 274 289 295 297 296 295 294 292 291 292 293 295 295 294 292 291 291 291 291 292 292 292 290 291 293 291 290 295 298 293 286 285 286 288 291 295 296 297 298 297 297 296 295 293 291 289 287 286 285 284 284 283 282 280 277
183 191 189 185 195 198 189 192 197 193 187 186 187 187 186 187 189 188 185 183 183 185 187 191 199 205 206 218 236 252 272 291 299 299 298 298 295 293 293 293 295 297 298 298 297 295 295 297 296 295 295 295 296 297 299 299 299 302 303 297 287 284 286 288 292 293 293 294 295 295 295 296 295 294 293 293 292 290 289 288 286 285 284 281 278
183 183 182 188 198 202 201 200 199 199 196 192 190 191 190 190 189 186 183 181 181 184 189 190 191 200 218 228 234 252 278 294 301 302 302 301 298 295 297 298 300 302 302 301 300 299 299 300 299 300 301 301 303 304 306 308 304 299 298 295 287 284 285 287 290 292 293 293 292 291 290 290 290 290 290 291 292 292 292 291 291 290 287 283 283
199 186 179 190 200 203 207 207 206 206 203 198 195 195 194 192 188 184 180 177 178 182 185 181 179 198 228 235 230 253 284 297 301 302 300 299 300 299 300 303 304 305 304 302 302 302 304 306 307 308 308 307 306 305 307 310 310 306 302 296 287 284 284 287 290 292 294 293 290 289 288 286 286 287 287 288 289 292 295 296 296 296 293 290 289
207 190 185 200 205 205 209 211 210 209 205 201 198 196 194 191 186 180 176 175 177 177 177 178 184 201 223 230 234 262 289 298 298 299 298 299 303 302 303 307 307 305 304 304 306 308 310 312 312 311 310 307 306 308 311 316 320 320 316 306 292 285 285 288 291 292 292 290 288 287 288 289 290 289 288 289 292 295 298 298 296 294 293 292 291
203 198 201 203 199 199 203 208 210 210 207 202 196 191 191 189 182 177 175 175 175 171 168 177 191 205 222 230 240 270 290 294 295 297 300 302 305 304 306 310 310 308 308 309 311 313 312 310 308 308 308 309 311 314 316 319 322 322 321 314 298 288 289 291 292 293 292 290 289 289 292 294 295 294 294 295 296 297 298 298 297 295 294 292 290
207 199 195 191 194 197 201 208 210 206 198 148 84 99 111 196 179 175 176 177 172 163 158 167 189 206 223 234 250 280 288 290 296 302 305 307 308 311 315 318 318 316 317 317 316 315 313 310 312 316 318 317 316 316 315 316 316 317 320 316 303 295 295 295 293 292 291 290 291 292 294 296 297 297 297 297 296 296 296 297 297 296 295 293 290
203 185 176 183 198 206 213 214 200 103 91 133 149 147 164 185 177 179 187 178 164 155 152 161 182 195 211 235 260 278 284 290 301 306 309 311 314 319 322 323 322 319 318 319 319 320 321 322 323 323 321 317 313 311 311 310 308 308 312 312 305 300 298 297 296 295 295 295 295 294 295 297 298 298 297 296 295 298 303 306 304 301 298 293 291
177 168 177 179 179 225 252 257 49 86 138 170 175 171 167 163 160 199 219 181 156 151 153 154 160 171 189 226 253 263 275 297 308 309 312 315 318 322 322 321 323 324 323 324 326 325 323 321 319 317 315 314 312 311 311 311 310 308 309 309 305 301 299 299 299 299 299 299 298 298 300 300 299 300 301 301 302 306 314 317 316 313 304 295 294
172 175 174 152 147 183 229 240 187 167 157 153 159 160 147 139 152 189 206 173 154 151 147 144 148 169 202 222 241 268 300 316 315 315 317 318 320 321 320 322 325 327 325 323 323 319 314 313 313 313 312 310 309 309 310 311 312 312 312 309 304 299 297 298 298 298 298 298 298 299 302 301 300 303 305 305 306 308 314 316 315 313 304 295 296
137 131 127 122 134 159 174 165 158 158 148 145 151 146 136 142 160 173 171 155 148 145 139 140 153 188 220 222 297 327 324 320 319 322 321 319 321 319 319 321 323 322 319 315 313 311 309 310 312 312 311 310 310 311 311 310 310 310 309 306 300 296 296 296 297 297 296 295 297 299 301 302 303 303 302 301 300 302 306 307 305 303 298 294 295
99 100 106 105 98 104 119 123 130 142 147 146 140 132 137 153 157 152 145 142 143 144 139 139 158 185 194 22 346 325 324 326 323 321 316 313 314 313 313 314 314 314 313 311 312 313 311 311 314 314 314 314 315 318 318 316 316 313 307 302 297 296 296 296 296 298 297 296 298 300 300 300 298 297 296 298 300 301 302 301 300 298 297 295 294
106 101 100 97 84 73 84 118 142 151 143 133 128 131 142 149 144 142 141 137 138 141 138 145 161 145 97 325 318 321 324 315 307 306 306 302 298 298 301 304 306 310 312 310 310 311 309 310 314 315 317 319 321 323 324 324 325 323 317 311 304 301 301 299 298 299 299 298 298 298 297 295 294 295 297 299 300 300 300 299 298 297 295 294 292
102 94 87 80 78 87 139 155 145 129 118 117 122 126 122 112 112 125 133 135 139 138 136 149 148 134 262 268 290 311 302 302 310 312 300 288 286 296 306 309 312 315 314 311 311 313 313 313 316 318 321 324 325 325 326 328 330 331 332 330 322 317 314 309 305 304 302 298 296 296 296 296 296 298 300 301 300 299 297 297 296 295 294 293 289
72 82 91 98 158 186 165 137 119 109 108 113 117 113 106 98 97 103 108 114 121 122 121 125 126 250 258 267 325 301 294 317 327 310 293 285 296 319 323 320 322 321 317 314 315 316 316 317 321 326 328 327 327 326 326 329 335 340 340 336 328 322 317 312 306 301 298 295 295 296 297 296 297 299 300 300 298 296 294 292 291 290 289 285 280
127 147 149 167 190 172 134 118 114 111 108 109 111 109 107 111 117 114 105 99 102 111 126 124 276 277 281 334 314 300 312 337 324 311 309 320 333 333 327 324 325 325 324 321 319 320 323 325 325 324 323 322 323 323 323 326 331 335 333 330 326 321 315 309 304 299 297 297 297 297 295 294 297 300 301 299 296 293 291 289 288 287 284 279 274
165 163 157 160 158 136 123 120 117 113 110 110 111 109 108 109 109 104 100 95 87 70 47 21 310 299 335 336 322 338 360 340 326 330 338 336 330 328 333 336 332 328 328 328 328 329 329 326 320 316 314 316 317 318 319 321 324 326 327 326 325 321 316 310 305 301 299 297 296 294 293 293 295 297 298 296 293 290 289 287 284 282 279 276 271
146 138 138 138 131 123 119 113 107 107 110 108 105 103 99 89 77 75 78 73 56 30 7 340 311 327 18 15 2 10 3 339 334 340 335 331 338 345 346 341 335 330 327 325 325 324 322 320 317 315 315 316 317 318 318 317 317 318 319 320 319 316 313 309 303 300 298 296 294 294 294 294 294 293 292 291 287 284 282 280 278 276 274 273 271
120 119 120 118 115 114 111 106 104 104 104 103 100 96 91 84 74 68 62 52 39 18 354 333 322 1 35 26 5 359 353 340 338 336 329 332 344 346 341 334 328 323 315 306 302 303 311 318 317 314 315 315 314 314 312 310 311 312 314 314 312 311 310 307 303 302 301 298 296 294 293 293 291 288 286 286 284 281 279 278 277 276 275 274 271
112 112 112 111 112 112 109 106 105 104 102 100 96 89 83 79 73 65 56 47 35 15 356 344 344 21 37 22 359 352 351 343 339 334 327 327 330 330 328 321 315 315 312 302 292 289 298 305 303 303 309 310 308 307 307 307 309 312 312 312 310 310 310 307 305 305 302 297 293 290 289 288 286 284 284 284 282 282 281 280 281 280 278 277 277
112 113 113 111 110 109 107 106 105 105 102 96 93 93 93 89 77 59 50 48 35 12 360 354 350 11 27 18 356 342 339 338 337 331 326 325 325 322 318 314 314 317 317 312 301 292 297 304 303 301 306 312 313 312 310 309 310 312 313 315 315 315 314 312 311 307 299 290 287 286 284 285 285 283 281 280 280 281 281 281 282 282 278 277 278
Height
755 758 761 763 765 766 768 769 772 775 778 781 784 788 790 789 790 791 791 792 792 793 794 794 796 797 797 798 798 799 800 800 801 802 800 802 805 805 803 803 803 804 804 803 803 803 803 803 803 803 803 803 804 804 804 804 804 804 804 804 805 805 806 806 807 808 809 811 811 811 812 812 812 813 814 814 814 815 816 817 818 819 820 821 821
755 758 761 763 764 765 767 768 771 774 777 781 784 788 789 788 789 791 791 791 791 791 792 793 794 795 796 797 798 799 799 799 800 801 801 802 805 804 802 802 802 802 803 802 802 802 802 802 801 802 801 802 802 802 802 802 802 802 802 803 804 804 805 805 805 806 807 809 809 809 811 811 810 810 811 812 812 813 815 816 817 817 817 817 818
757 758 760 763 764 765 767 768 771 774 777 781 784 788 788 787 789 790 790 790 789 790 791 791 792 793 794 796 797 798 798 799 800 800 801 802 803 803 802 801 801 801 801 802 801 801 801 801 801 800 800 800 801 801 800 800 800 800 801 802 802 803 804 804 804 804 805 806 808 809 809 809 809 808 808 809 810 811 812 813 814 814 814 814 813
759 758 758 760 762 764 766 768 770 772 775 780 785 788 786 786 788 788 788 788 788 789 788 789 790 791 793 795 796 797 798 799 800 800 800 801 802 802 801 800 800 800 800 801 801 800 800 800 800 799 799 799 799 799 799 798 799 799 799 800 801 802 802 803 803 803 804 805 807 809 808 810 812 809 806 807 808 809 810 810 811 811 811 812 812
759 759 758 758 760 761 763 766 768 771 773 777 783 786 785 786 787 785 785 786 787 787 787 787 789 790 792 793 795 796 797 798 799 799 799 800 801 800 800 799 799 799 800 800 799 799 799 799 798 798 797 798 798 798 798 798 798 798 798 799 800 801 801 802 802 802 803 803 804 806 809 812 811 807 805 805 805 806 807 808 808 808 809 809 809
756 758 758 757 758 760 762 764 767 771 774 779 784 785 785 786 786 783 783 785 786 786 786 786 787 788 790 791 793 794 795 797 798 799 799 799 800 800 799 799 799 799 799 799 798 798 798 798 797 797 796 797 797 797 796 797 797 796 797 798 798 799 800 801 801 801 801 801 801 802 804 807 806 804 806 805 803 804 805 806 806 805 806 807 806
757 757 757 757 758 759 762 764 766 770 775 781 784 784 784 785 783 782 783 784 785 786 786 786 786 788 789 790 792 793 795 796 797 798 799 799 799 799 799 798 798 798 798 797 798 797 797 797 797 796 796 795 796 796 796 796 796 796 796 797 797 798 799 799 800 800 799 800 800 800 801 802 803 803 805 806 806 805 804 804 804 804 804 805 805
758 760 758 757 758 759 761 764 765 768 773 777 780 781 781 782 781 781 783 783 784 785 785 786 788 789 790 791 792 793 795 796 796 797 798 798 799 799 799 798 798 797 797 796 797 797 796 797 796 795 795 795 795 795 795 795 795 795 795 796 797 797 797 798 799 799 799 799 799 800 801 801 802 802 802 803 806 807 805 803 803 802 802 803 803
756 758 758 756 757 759 761 762 765 767 770 772 775 777 779 780 780 781 781 782 783 783 784 785 787 788 790 791 792 793 794 794 795 797 798 798 798 799 798 798 797 796 796 796 796 796 796 796 796 795 795 795 794 794 794 795 795 795 795 795 796 796 797 797 798 798 798 798 799 800 800 800 801 801 801 801 803 805 806 802 800 800 800 800 800
753 755 756 756 757 759 760 762 764 766 768 771 773 775 777 778 780 780 780 781 782 783 784 785 786 787 789 791 792 793 793 793 795 797 798 798 798 798 798 798 797 796 795 796 795 795 795 795 795 795 795 794 794 794 794 794 794 794 795 795 795 795 796 796 797 797 797 797 798 798 798 798 799 799 800 800 801 802 803 800 798 798 798 797 797
752 754 756 756 758 759 760 763 765 766 768 770 772 775 777 779 780 781 781 781 782 782 784 786 787 788 790 791 791 791 792 792 795 796 797 798 798 798 798 798 797 796 796 795 795 795 794 794 795 795 795 794 794 794 794 794 794 794 794 794 794 794 795 795 795 796 795 795 796 796 797 797 797 797 798 799 800 800 800 798 796 795 796 796 796
752 757 759 759 762 762 762 764 764 766 768 770 773 776 778 780 781 782 783 783 783 783 785 786 788 789 790 791 791 791 792 794 795 797 798 798 798 798 798 797 797 796 795 794 794 794 794 794 794 795 794 794 794 794 794 794 794 794 793 793 794 793 793 794 794 794 794 794 794 795 796 795 795 795 796 797 798 797 797 796 794 794 795 794 794
756 761 763 764 767 766 764 765 765 767 769 771 773 775 778 781 782 783 783 784 784 784 785 787 788 789 790 790 791 792 794 795 796 797 798 798 798 798 797 797 796 796 794 793 793 793 794 794 794 794 794 794 794 794 794 793 793 793 793 793 793 793 793 793 793 793 793 793 793 793 793 794 793 793 793 794 794 794 794 793 792 793 793 792 792
758 762 764 765 767 767 764 765 766 767 769 771 773 775 778 780 782 783 783 784 785 785 786 787 788 790 790 791 793 794 795 796 797 797 797 798 798 797 797 796 796 795 794 793 793 794 794 794 794 794 794 794 794 794 793 793 793 793 793 793 792 792 792 792 792 792 792 792 792 792 791 791 791 791 791 791 792 791 791 791 791 791 790 789 789
758 759 761 763 764 764 764 764 766 767 769 771 774 776 778 779 781 782 784 785 786 787 787 788 790 791 791 792 793 795 796 796 797 798 798 798 798 797 797 796 795 794 793 793 793 793 794 793 794 794 793 793 793 793 793 793 793 792 792 792 792 792 791 791 791 790 790 790 790 790 790 789 790 789 789 789 789 789 789 789 790 791 791 789 787
756 757 760 760 760 762 763 764 765 766 768 771 773 775 777 779 781 782 784 785 786 788 788 789 791 792 793 794 794 796 797 797 797 798 798 798 798 797 797 796 795 794 793 793 793 793 793 793 793 793 793 793 793 793 792 792 792 792 792 792 791 791 791 790 790 789 789 789 789 788 788 787 787 787 787 787 787 787 786 787 788 789 790 790 788
754 756 758 759 758 761 762 763 765 766 768 770 772 774 775 778 781 782 784 785 787 788 789 790 792 793 794 795 795 796 797 797 797 797 798 797 797 797 796 795 794 793 793 792 792 792 793 793 793 793 793 793 793 792 792 791 791 791 791 791 791 790 790 789 789 789 788 788 787 787 786 786 785 785 785 785 784 784 784 785 785 785 786 789 790
755 756 757 758 758 760 762 763 765 766 769 771 772 774 775 778 780 782 783 785 786 788 789 791 792 793 794 795 796 796 796 797 797 797 797 796 796 795 794 794 793 793 792 792 792 792 792 793 793 793 793 792 792 791 791 791 790 790 790 790 790 790 789 789 788 788 787 787 786 786 785 784 784 783 783 782 782 783 783 783 783 783 783 785 786
758 758 759 759 758 761 762 763 765 767 769 771 773 774 775 778 779 781 783 784 786 787 789 791 791 792 793 794 795 796 796 796 796 796 796 795 794 794 793 793 792 792 792 792 792 793 793 793 792 792 792 792 791 790 790 790 790 790 790 790 789 789 788 787 787 787 786 786 785 785 784 783 783 782 781 781 781 780 780 780 780 780 781 781 781
759 759 760 759 759 761 762 763 766 768 770 770 772 773 775 778 779 781 783 784 786 787 788 789 789 791 792 793 794 794 794 795 794 795 795 794 794 793 793 792 792 792 792 792 792 792 792 792 791 791 791 791 791 790 790 790 790 790 789 789 788 788 787 786 786 786 785 785 784 784 783 782 782 781 780 780 778 778 777 776 777 777 778 778 778
757 758 759 758 760 761 761 764 766 767 769 769 771 773 775 777 779 780 782 783 785 786 787 788 788 790 791 791 792 792 793 793 793 794 793 793 793 792 792 792 791 792 792 792 792 791 791 791 791 791 791 791 791 790 790 790 789 789 789 788 788 787 786 786 785 785 784 784 783 782 782 781 780 780 778 778 777 776 775 773 773 773 773 774 775
754 755 756 756 759 761 761 764 766 767 768 769 770 772 774 777 778 780 781 782 784 785 786 787 788 789 790 790 791 791 792 792 792 793 792 792 791 791 791 791 791 792 792 792 792 791 790 790 790 790 790 790 790 790 790 789 789 789 788 788 787 786 785 785 784 784 783 783 782 781 781 780 779 779 777 777 775 774 774 772 772 771 770 770 771
752 752 751 752 756 759 761 764 766 767 768 768 769 771 774 776 777 779 780 781 783 784 785 787 787 788 789 789 790 790 791 791 792 792 792 791 791 791 791 791 791 791 791 791 791 790 790 789 789 790 789 789 789 789 789 788 788 788 787 787 786 785 785 784 783 783 782 781 781 780 780 779 778 777 776 776 775 773 772 771 770 770 769 768 768
752 749 748 751 755 757 761 764 766 767 768 769 769 771 774 776 777 779 780 781 783 783 785 786 786 787 788 788 789 789 790 791 791 791 791 790 791 790 790 791 791 791 790 790 790 790 789 789 789 789 788 788 788 787 787 787 787 787 786 786 785 785 784 783 783 782 781 780 780 779 779 778 777 776 775 774 773 772 771 770 769 768 768 767 767
752 749 749 752 754 756 760 763 765 767 768 769 770 772 774 776 778 779 779 781 783 783 785 786 786 787 788 788 788 789 789 790 790 790 790 790 790 789 790 790 790 790 789 789 789 789 789 789 788 788 787 787 787 786 786 786 785 785 785 784 784 783 783 782 782 781 780 780 779 778 778 777 776 776 775 774 772 771 770 769 769 768 767 767 766
753 751 752 753 755 757 760 763 765 767 768 769 770 772 774 776 777 778 780 781 782 784 785 785 786 786 787 788 788 788 789 789 789 789 789 789 789 789 789 789 789 789 789 788 788 788 788 787 787 787 786 786 785 785 784 784 783 783 783 782 782 781 781 781 780 780 779 779 778 777 777 776 775 775 774 773 772 771 770 769 768 767 767 766 765
754 753 754 755 757 759 760 763 765 766 767 768 769 771 773 775 776 777 779 781 782 783 784 785 786 786 786 787 787 788 788 788 788 788 788 788 789 789 789 788 788 788 788 787 787 787 786 786 786 785 785 784 783 783 783 782 782 781 780 780 780 779 779 779 779 778 778 777 777 776 775 774 774 773 772 772 771 770 770 769 768 767 766 766 765
756 756 757 758 759 760 761 763 764 765 767 768 769 771 772 774 775 776 778 779 781 782 783 784 785 785 786 787 787 787 787 788 788 788 788 788 788 788 788 788 787 787 787 787 786 786 785 785 784 784 783 783 782 781 781 781 780 779 779 778 778 778 777 777 777 777 776 776 775 774 773 772 772 771 770 770 770 769 768 768 767 767 766 765 764
757 758 758 759 760 760 761 763 763 764 766 767 769 770 771 773 774 775 776 778 780 781 782 784 785 785 786 786 787 787 787 787 788 787 788 787 787 787 787 787 787 786 786 786 785 785 784 784 783 782 782 781 781 780 780 779 778 778 777 776 776 776 775 775 775 775 774 774 773 772 771 770 769 768 768 768 767 767 766 766 765 765 765 765 764
757 757 758 759 759 759 760 762 762 763 764 766 767 768 769 771 772 773 775 776 778 780 781 783 784 785 786 786 787 787 787 787 787 787 787 787 786 786 786 786 785 785 785 784 784 784 783 782 782 781 780 780 779 779 778 778 777 776 775 775 774 774 774 773 773 772 772 771 771 770 769 768 767 765 765 764 764 764 763 763 763 763 763 763 762
756 758 759 759 759 759 759 760 760 761 762 764 765 766 768 769 770 771 773 774 776 778 780 782 783 784 785 786 786 787 787 787 787 786 786 786 786 785 785 785 784 784 784 783 783 782 781 781 780 779 779 778 777 777 776 775 775 774 774 773 773 772 772 772 771 770 770 769 768 768 767 766 764 763 762 762 761 761 761 761 761 760 760 760 760
754 757 758 759 759 758 757 758 758 759 760 761 763 764 765 766 767 769 770 772 774 775 778 780 782 784 784 785 786 786 786 786 786 786 785 785 785 784 784 784 783 783 783 782 781 781 780 779 779 778 777 776 776 775 774 773 773 772 772 771 771 771 770 770 769 768 768 767 766 766 765 764 763 761 761 760 759 759 758 758 758 758 757 757 757
752 754 755 756 756 755 755 755 755 756 757 758 760 761 762 762 764 766 767 770 772 774 777 779 780 782 783 784 785 785 785 785 785 785 784 784 784 783 783 783 782 782 781 781 780 779 778 778 777 776 775 774 774 773 772 772 771 770 770 769 769 768 768 767 767 766 766 765 764 763 762 761 760 759 759 758 757 756 756 755 755 755 754 754 754
751 751 752 753 753 753 754 753 753 754 754 756 757 758 760 761 762 764 766 769 771 773 775 777 779 781 782 783 784 784 784 784 784 784 783 783 783 782 782 782 781 781 780 779 779 778 777 777 776 775 774 773 772 772 771 770 769 768 768 767 766 766 766 765 765 764 764 763 762 761 759 758 758 757 756 756 755 754 754 753 753 752 752 752 751
750 749 750 750 750 751 751 751 751 751 752 753 755 757 759 761 763 765 767 768 771 772 774 776 778 779 780 782 782 783 783 783 783 783 782 782 782 781 781 781 780 780 779 778 778 777 776 775 774 774 773 772 771 770 770 769 768 767 766 765 765 764 764 763 763 762 761 760 759 758 757 756 755 754 754 753 753 752 752 751 750 750 750 749 749
747 747 747 747 747 748 748 748 748 748 749 752 756 759 763 765 766 768 769 770 771 772 773 775 777 778 780 781 781 782 782 782 782 781 781 781 781 780 780 780 779 779 778 777 777 776 775 774 773 772 771 770 769 769 768 767 766 765 765 764 763 763 762 761 760 759 758 757 756 756 754 753 753 752 752 751 751 750 749 749 748 747 747 747 746
743 744 744 744 745 746 746 747 746 748 752 758 762 765 768 770 771 771 772 772 772 773 774 775 777 778 779 780 781 781 781 781 781 780 780 780 780 780 779 779 778 778 777 776 775 774 774 772 771 770 769 768 768 767 767 766 765 764 763 762 762 761 760 759 758 757 756 755 754 753 752 752 751 750 750 749 748 748 747 747 746 745 745 744 743
740 741 742 744 746 747 747 748 748 753 759 762 762 763 766 769 771 773 774 774 773 774 774 775 777 778 778 780 780 780 780 780 780 780 780 780 779 779 779 778 778 777 776 775 774 773 773 771 770 770 769 767 766 765 765 764 763 763 762 761 760 759 758 757 755 754 754 752 752 751 750 750 749 748 747 747 746 746 745 745 744 743 743 741 741
738 741 743 745 747 748 749 749 751 757 760 759 757 759 762 767 772 778 779 776 775 775 775 775 776 777 778 779 779 779 779 779 779 779 779 779 779 778 778 778 777 776 775 775 774 773 772 771 770 769 768 767 765 764 764 763 762 761 760 759 759 757 756 755 754 753 752 751 750 749 748 748 747 746 745 745 744 744 743 743 743 742 741 740 739
740 743 744 746 749 752 754 755 757 759 759 757 757 760 765 769 773 779 780 777 776 776 775 775 777 777 778 779 778 779 779 778 779 779 778 779 778 778 778 777 776 775 774 774 773 772 771 770 769 768 766 765 764 763 762 762 761 760 759 758 757 755 754 753 752 751 750 749 748 747 747 746 745 744 744 743 743 742 742 742 741 741 740 738 737
744 746 747 748 752 755 757 758 758 757 756 756 758 762 766 769 772 776 777 775 775 775 775 776 777 777 778 778 777 778 778 778 779 778 778 778 778 777 777 775 775 774 773 773 772 771 770 768 767 766 765 763 762 761 760 760 759 758 757 756 755 754 753 752 751 750 749 748 747 746 745 744 743 742 742 741 740 740 740 739 739 738 737 736 735
747 748 749 750 751 753 753 753 753 754 755 756 760 763 766 768 770 773 774 774 774 775 775 776 777 777 777 777 777 778 778 778 778 778 778 777 776 776 775 774 774 773 772 771 771 769 768 767 765 765 763 762 761 760 759 758 757 756 755 755 754 753 752 751 750 749 748 747 745 744 743 742 741 740 739 738 738 737 736 735 734 734 733 732 732
746 749 751 751 750 751 754 755 756 757 758 759 761 764 766 768 770 771 772 773 774 774 775 776 776 777 777 777 777 778 777 778 777 777 776 776 774 774 773 772 772 771 770 770 769 768 767 766 764 763 762 761 760 759 758 757 756 754 754 753 753 752 751 750 749 747 746 745 744 742 741 740 739 737 736 735 734 733 732 730 730 729 728 728 727
744 748 750 750 751 754 758 761 761 760 760 761 764 766 767 768 770 771 772 773 773 774 775 775 776 776 776 776 777 777 776 776 776 775 774 773 773 772 771 771 771 770 769 769 768 767 766 764 763 762 761 760 759 758 757 756 755 754 753 752 752 751 750 749 748 746 745 743 742 740 739 737 735 734 732 731 730 729 727 726 725 725 724 724 723
747 750 752 755 761 763 762 762 762 762 763 764 766 768 769 770 771 771 772 772 773 774 775 775 775 775 775 775 775 775 775 774 774 774 772 771 771 771 770 770 769 769 768 767 766 766 765 763 763 761 760 760 759 757 756 755 754 753 752 752 751 750 749 747 746 744 742 740 738 737 735 734 732 731 729 728 726 725 723 722 721 721 720 719 718
752 755 758 763 768 766 761 761 763 764 765 767 768 769 770 771 771 771 772 773 773 774 774 774 775 774 774 774 774 773 773 773 773 772 771 771 771 770 770 769 769 768 768 767 766 765 764 763 762 761 760 759 758 757 756 754 753 752 751 750 749 747 746 745 743 741 739 737 735 733 732 730 729 727 727 725 722 720 719 717 716 716 715 714 713
756 757 760 763 764 762 761 762 764 765 766 768 770 770 770 771 770 771 772 772 773 773 773 773 773 772 772 773 772 772 772 772 772 771 771 771 771 770 769 769 768 768 767 766 766 765 764 763 762 760 759 758 756 755 754 753 752 750 749 747 746 744 743 742 740 738 736 734 732 730 728 727 725 724 723 721 718 716 714 712 711 710 710 708 707
755 757 759 760 760 761 762 763 764 766 767 768 769 770 770 770 770 771 772 772 773 773 773 773 772 772 772 772 772 772 772 772 772 772 771 771 770 770 770 769 769 768 767 767 766 765 764 763 761 759 758 756 755 754 753 752 750 749 747 745 743 741 740 738 736 735 733 730 727 725 724 722 721 719 718 716 714 712 710 708 707 706 705 704 702
755 757 758 759 760 761 762 763 765 766 767 768 769 770 770 770 771 772 772 773 773 773 773 773 772 771 772 773 773 772 772 772 772 772 772 771 770 770 770 769 769 769 768 767 766 765 764 762 760 758 757 755 754 753 751 750 749 747 746 744 741 739 738 735 733 731 728 725 723 721 719 718 716 715 713 711 710 708 706 705 703 702 701 700 698
755 757 758 759 761 761 762 763 765 766 767 768 769 770 771 771 772 773 773 774 774 774 774 773 772 772 773 774 774 773 773 773 773 773 772 771 771 770 770 769 768 768 767 766 764 763 762 760 758 757 756 755 753 751 749 748 746 744 743 742 739 737 734 731 728 727 724 721 719 717 716 714 713 712 710 708 707 705 703 702 700 699 698 696 694
756 757 758 759 760 761 762 763 765 766 768 769 769 771 772 772 773 774 774 775 775 775 775 774 774 774 774 775 775 775 774 774 774 773 772 772 771 770 769 768 767 766 765 763 762 761 760 758 757 756 754 753 752 749 747 746 744 742 740 737 735 732 729 726 724 722 720 717 716 714 713 711 710 709 707 706 704 702 701 699 698 696 695 693 692